Regional Weather Roundup
Issued by NWS

Home | Current Version | Previous Version | Text Only | Print | Product List | Glossary Off
Versions: 1 2 3 4 5 6 7 8 9 10 11 12 13 14 15 16 17 18 19 20 21 22 23 24 25 26 27 28 29 30 31 32 33 34 35 36 37 38 39 40 41 42 43 44 45 46 47 48 49 50

000
ASUS43 KLMK 182002
RWRKY
KENTUCKY REGIONAL WEATHER ROUNDUP
NATIONAL WEATHER SERVICE LOUISVILLE KY
300 PM EST THU DEC 18 2014

NOTE "FAIR" INDICATES FEW OR NO CLOUDS BELOW 12,000 FEET
WITH NO SIGNIFICANT WEATHER AND/OR OBSTRUCTIONS TO VISIBILITY.

KYZ001>023-026-027-061>063-070>075-182100-
WESTERN AND SOUTH CENTRAL KENTUCKY

CITY           SKY/WX    TMP DP  RH WIND       PRES   REMARKS
PADUCAH        CLOUDY    36  31  82 E3        30.22F
HENDERSON      CLOUDY    34  25  69 NW6       30.23F WCI  29
OWENSBORO      CLOUDY    33  26  76 N7        30.24F WCI  27
HOPKINSVILLE   NOT AVBL
BOWLING GREEN  CLOUDY    35  27  72 VRB3      30.22F
GLASGOW        NOT AVBL
$$

KYZ024-025-028>034-038-045-046-053-182100-
NORTH CENTRAL KENTUCKY

CITY           SKY/WX    TMP DP  RH WIND       PRES   REMARKS
LOUISVILLE/SDF CLOUDY    33  23  66 CALM      30.23S
LOUISVILLE/LOU CLOUDY    32  23  69 CALM      30.23F
FORT KNOX      NOT AVBL
$$

KYZ035>037-039>044-047>052-055>060-089>105-182100-
NORTHEAST KENTUCKY

CITY           SKY/WX    TMP DP  RH WIND       PRES   REMARKS
LEXINGTON      CLOUDY    31  23  72 CALM      30.21F
COVINGTON      CLOUDY    29  19  66 CALM      30.20F
FRANKFORT      CLOUDY    31  23  72 E3        30.21F
$$

KYZ054-064>069-076>088-106>120-182100-
SOUTHEAST KENTUCKY

CITY           SKY/WX    TMP DP  RH WIND       PRES   REMARKS
JACKSON        CLOUDY    35  24  64 NW8       30.17R WCI  29
LONDON         CLOUDY    36  26  67 NW7       30.19R WCI  30
SOMERSET       NOT AVBL
MIDDLESBORO    NOT AVBL
MONTICELLO     CLOUDY    36  28  73 N5        30.22S WCI  32
$$




USA.gov is the U.S. government's official web portal to all federal, state and local government web resources and services.